Baltic Marshall — C4KD2 — position and weather

sailwx.info

Track history (hours):
 
Tides and Currents Weather Stations Pressure Air Temp Water Temp Dewpoint Dewpoint Depression Visibility Wind Speed Wind Dir Waves Ship Positions

Baltic Marshall

Last reported at 2014-Oct-20 05:33 UTC. Time now 2014-Oct-20 11:26 UTC.
Position N 36°08' W 005°25'.

Length 183 m; draft 11 m.

Type: Tanker. MMSI: 212118000.

Date/timePositionNaut miles runAvg speedWind from/ knotsBaromVisibWave heightAir tempDewpointWater temp
2014-Oct-20 05:33N 36°08' W 005°25'5 4.7
2014-Oct-20 04:33N 36°04' W 005°23'7 6.6
2014-Oct-20 03:33N 35°58' W 005°26'9011.1
2014-Oct-19 19:29N 36°06' W 007°17'2311.7
2014-Oct-19 17:32N 36°12' W 007°44'4911.6
2014-Oct-19 13:16N 36°23' W 008°44'911.3
2014-Oct-19 12:28N 36°25' W 008°55'1111.6
2014-Oct-19 11:33N 36°28' W 009°08'1311.1
2014-Oct-19 10:25N 36°32' W 009°22'3311.4
2014-Oct-19 07:33N 37°00' W 009°42'1311.8
2014-Oct-19 06:28N 37°13' W 009°46'1111.8
2014-Oct-19 05:33N 37°23' W 009°49'1211.8
2014-Oct-19 04:32N 37°35' W 009°53'1211.8
2014-Oct-19 03:31N 37°46' W 009°56'1111.6
2014-Oct-19 02:33N 37°58' W 009°59'1111.4
2014-Oct-19 01:33N 38°09' W 010°03'1211.6
2014-Oct-19 00:30N 38°20' W 010°07'1211.6
2014-Oct-18 23:30N 38°32' W 010°10'  
2014-Oct-15 19:22N 49°46' W 003°30'1112.4
2014-Oct-15 18:28N 49°51' W 003°15'1212.9
2014-Oct-15 17:33N 49°57' W 002°59'1312.7
2014-Oct-15 16:32N 50°02' W 002°40'1412.2
2014-Oct-15 15:23N 50°05' W 002°19'9311.5
2014-Oct-15 07:14N 50°31' E 000°01'913.4
2014-Oct-15 06:33N 50°33' E 000°15'1313.0
2014-Oct-15 05:33N 50°37' E 000°35'1212.4
2014-Oct-15 04:33N 50°44' E 000°51'1711.4
2014-Oct-15 03:07N 50°55' E 001°11'611.1
2014-Oct-15 02:33N 50°59' E 001°18'1211.6
2014-Oct-15 01:33N 51°06' E 001°32'1313.5
2014-Oct-15 00:34N 51°16' E 001°48'1413.7
2014-Oct-14 23:33N 51°28' E 001°58'1413.5
2014-Oct-14 22:33N 51°38' E 002°13'6410.6
2014-Oct-14 16:33N 52°03' E 003°47'8 8.2
2014-Oct-14 15:33N 52°01' E 003°60'9 9.3
2014-Oct-14 14:33N 51°56' E 004°12'1 0.6
2014-Oct-14 13:32N 51°55' E 004°12'0 0.0
2014-Oct-14 12:32N 51°55' E 004°12'0 0.0
2014-Oct-14 11:32N 51°55' E 004°12'0 0.0
2014-Oct-14 10:32N 51°55' E 004°12'0 0.0
2014-Oct-14 09:32N 51°55' E 004°12'0 0.0
2014-Oct-14 08:32N 51°55' E 004°12'0 0.0
2014-Oct-14 07:29N 51°55' E 004°12'0 0.0
2014-Oct-14 06:32N 51°55' E 004°12'0 0.0
2014-Oct-14 05:32N 51°55' E 004°12'0 0.0
2014-Oct-14 04:32N 51°55' E 004°12'0 0.0
2014-Oct-14 03:32N 51°55' E 004°12'0 0.0
2014-Oct-14 02:32N 51°55' E 004°12'0 0.0
2014-Oct-14 01:32N 51°55' E 004°12'0 0.0
2014-Oct-14 00:32N 51°55' E 004°12'0 0.0
2014-Oct-13 23:32N 51°55' E 004°12'0 0.0
2014-Oct-13 22:32N 51°55' E 004°12'0 0.0
2014-Oct-13 21:32N 51°55' E 004°12'0 0.0
2014-Oct-13 20:32N 51°55' E 004°12'0 0.0
2014-Oct-13 19:32N 51°55' E 004°12'0 0.0
2014-Oct-13 18:32N 51°55' E 004°12'0 0.0
2014-Oct-13 17:32N 51°55' E 004°12'0 0.0
2014-Oct-13 16:32N 51°55' E 004°12'0 0.0
2014-Oct-13 15:32N 51°55' E 004°12'0 0.0
2014-Oct-13 14:32N 51°55' E 004°12'0 0.0
2014-Oct-13 13:32N 51°55' E 004°12'0 0.0
2014-Oct-13 12:32N 51°55' E 004°12'0 0.0
2014-Oct-13 11:32N 51°55' E 004°12'0 0.0
2014-Oct-13 10:32N 51°55' E 004°12'0 0.0
2014-Oct-13 09:32N 51°55' E 004°12'0 0.0
2014-Oct-13 08:32N 51°55' E 004°12'0 0.0
2014-Oct-13 07:32N 51°55' E 004°12'0 0.0
2014-Oct-13 06:32N 51°55' E 004°12'0 0.0
2014-Oct-13 05:32N 51°55' E 004°12'0 0.0
2014-Oct-13 04:32N 51°55' E 004°12'0 0.0
2014-Oct-13 03:32N 51°55' E 004°12'0 0.0
2014-Oct-13 02:32N 51°55' E 004°12'0 0.0
2014-Oct-13 01:32N 51°55' E 004°12'0 0.0
2014-Oct-13 00:34N 51°55' E 004°12'1 0.8
2014-Oct-12 23:34N 51°56' E 004°12'0 0.0
2014-Oct-12 22:32N 51°56' E 004°12'0 0.0
2014-Oct-12 21:32N 51°56' E 004°12'0 0.0
2014-Oct-12 20:32N 51°56' E 004°12'0 0.0
2014-Oct-12 19:32N 51°56' E 004°12'0 0.0
2014-Oct-12 18:32N 51°56' E 004°12'0 0.0
2014-Oct-12 17:32N 51°56' E 004°12'0 0.0
2014-Oct-12 16:32N 51°56' E 004°12'0 0.0
2014-Oct-12 15:32N 51°56' E 004°12'0 0.0
2014-Oct-12 14:32N 51°56' E 004°12'0 0.0
2014-Oct-12 13:32N 51°56' E 004°12'0 0.0
2014-Oct-12 12:32N 51°56' E 004°12'0 0.0
2014-Oct-12 11:32N 51°56' E 004°12'0 0.0
2014-Oct-12 10:32N 51°56' E 004°12'0 0.0
2014-Oct-12 09:32N 51°56' E 004°12'0 0.0
2014-Oct-12 08:32N 51°56' E 004°12'0 0.0
2014-Oct-12 07:32N 51°56' E 004°12'0 0.0
2014-Oct-12 06:32N 51°56' E 004°12'0 0.0
2014-Oct-12 05:32N 51°56' E 004°12'0 0.0
2014-Oct-12 04:32N 51°56' E 004°12'0 0.0
2014-Oct-12 03:32N 51°56' E 004°12'0 0.0
2014-Oct-12 02:32N 51°56' E 004°12'0 0.0
2014-Oct-12 01:32N 51°56' E 004°12'0 0.0
2014-Oct-12 00:32N 51°56' E 004°12'0 0.0
2014-Oct-11 23:32N 51°56' E 004°12'0 0.0
2014-Oct-11 22:32N 51°56' E 004°12'0 0.0
2014-Oct-11 21:32N 51°56' E 004°12'0 0.0
2014-Oct-11 20:32N 51°56' E 004°12'0 0.0
2014-Oct-11 19:32N 51°56' E 004°12'0 0.0
2014-Oct-11 18:32N 51°56' E 004°12'0 0.0
2014-Oct-11 17:32N 51°56' E 004°12'0 0.0
2014-Oct-11 16:32N 51°56' E 004°12'0 0.0
2014-Oct-11 15:32N 51°56' E 004°12'0 0.0
2014-Oct-11 14:32N 51°56' E 004°12'0 0.0
2014-Oct-11 13:32N 51°56' E 004°12'0 0.0
2014-Oct-11 12:32N 51°56' E 004°12'0 0.0
2014-Oct-11 11:32N 51°56' E 004°12'0 0.0
2014-Oct-11 10:32N 51°56' E 004°12'0 0.0
2014-Oct-11 09:32N 51°56' E 004°12'0 0.0
2014-Oct-11 08:32N 51°56' E 004°12'0 0.0
2014-Oct-11 07:32N 51°56' E 004°12'0 0.0
2014-Oct-11 06:32N 51°56' E 004°12'0 0.0
2014-Oct-11 05:32N 51°56' E 004°12'0 0.0
2014-Oct-11 04:32N 51°56' E 004°12'0 0.0
2014-Oct-11 03:32N 51°56' E 004°12'0 0.0
2014-Oct-11 02:32N 51°56' E 004°12'0 0.0
2014-Oct-11 01:33N 51°56' E 004°12'4 3.7
2014-Oct-11 00:33N 51°58' E 004°07'5 4.8
2014-Oct-10 23:33N 51°59' E 003°59'0 0.0
2014-Oct-10 22:33N 51°59' E 003°59'0 0.0
2014-Oct-10 21:33N 51°59' E 003°59'0 0.0
2014-Oct-10 20:33N 51°59' E 003°59'0 0.0
2014-Oct-10 19:33N 51°59' E 003°59'0 0.0
2014-Oct-10 18:33N 51°59' E 003°59'0 0.0
2014-Oct-10 17:33N 51°59' E 003°59'0 0.0
2014-Oct-10 16:33N 51°59' E 003°59'0 0.0
2014-Oct-10 15:33N 51°59' E 003°59'0 0.0
2014-Oct-10 14:33N 51°59' E 003°59'0 0.0
2014-Oct-10 13:33N 51°59' E 003°59'0 0.0
2014-Oct-10 12:33N 51°59' E 003°59'0 0.0
2014-Oct-10 11:33N 51°59' E 003°59'0 0.0
2014-Oct-10 10:24N 51°59' E 003°59'0 0.0
2014-Oct-10 09:24N 51°59' E 003°59'0 0.0
2014-Oct-10 08:33N 51°59' E 003°59'0 0.0
2014-Oct-10 07:33N 51°59' E 003°59'0 0.0
2014-Oct-10 06:33N 51°59' E 003°59'  
Track history (hours):
 
Tides and Currents Weather Stations Pressure Air Temp Water Temp Dewpoint Dewpoint Depression Visibility Wind Speed Wind Dir Waves Ship Positions

Baltic Marshall

Last reported at 2014-Oct-20 05:33 UTC. Time now 2014-Oct-20 11:26 UTC.
Position N 36°08' W 005°25'.

Length 183 m; draft 11 m.

Type: Tanker. MMSI: 212118000.

Date/timePositionNaut miles runAvg speedWind from/ knotsBaromVisibWave heightAir tempDewpointWater temp
2014-Oct-20 05:33N 36°08' W 005°25'5 4.7
2014-Oct-20 04:33N 36°04' W 005°23'7 6.6
2014-Oct-20 03:33N 35°58' W 005°26'9011.1
2014-Oct-19 19:29N 36°06' W 007°17'2311.7
2014-Oct-19 17:32N 36°12' W 007°44'4911.6
2014-Oct-19 13:16N 36°23' W 008°44'911.3
2014-Oct-19 12:28N 36°25' W 008°55'1111.6
2014-Oct-19 11:33N 36°28' W 009°08'1311.1
2014-Oct-19 10:25N 36°32' W 009°22'3311.4
2014-Oct-19 07:33N 37°00' W 009°42'1311.8
2014-Oct-19 06:28N 37°13' W 009°46'1111.8
2014-Oct-19 05:33N 37°23' W 009°49'1211.8
2014-Oct-19 04:32N 37°35' W 009°53'1211.8
2014-Oct-19 03:31N 37°46' W 009°56'1111.6
2014-Oct-19 02:33N 37°58' W 009°59'1111.4
2014-Oct-19 01:33N 38°09' W 010°03'1211.6
2014-Oct-19 00:30N 38°20' W 010°07'1211.6
2014-Oct-18 23:30N 38°32' W 010°10'  
2014-Oct-15 19:22N 49°46' W 003°30'1112.4
2014-Oct-15 18:28N 49°51' W 003°15'1212.9
2014-Oct-15 17:33N 49°57' W 002°59'1312.7
2014-Oct-15 16:32N 50°02' W 002°40'1412.2
2014-Oct-15 15:23N 50°05' W 002°19'9311.5
2014-Oct-15 07:14N 50°31' E 000°01'913.4
2014-Oct-15 06:33N 50°33' E 000°15'1313.0
2014-Oct-15 05:33N 50°37' E 000°35'1212.4
2014-Oct-15 04:33N 50°44' E 000°51'1711.4
2014-Oct-15 03:07N 50°55' E 001°11'611.1
2014-Oct-15 02:33N 50°59' E 001°18'1211.6
2014-Oct-15 01:33N 51°06' E 001°32'1313.5
2014-Oct-15 00:34N 51°16' E 001°48'1413.7
2014-Oct-14 23:33N 51°28' E 001°58'1413.5
2014-Oct-14 22:33N 51°38' E 002°13'6410.6
2014-Oct-14 16:33N 52°03' E 003°47'8 8.2
2014-Oct-14 15:33N 52°01' E 003°60'9 9.3
2014-Oct-14 14:33N 51°56' E 004°12'1 0.6
2014-Oct-14 13:32N 51°55' E 004°12'0 0.0
2014-Oct-14 12:32N 51°55' E 004°12'0 0.0
2014-Oct-14 11:32N 51°55' E 004°12'0 0.0
2014-Oct-14 10:32N 51°55' E 004°12'0 0.0
2014-Oct-14 09:32N 51°55' E 004°12'0 0.0
2014-Oct-14 08:32N 51°55' E 004°12'0 0.0
2014-Oct-14 07:29N 51°55' E 004°12'0 0.0
2014-Oct-14 06:32N 51°55' E 004°12'0 0.0
2014-Oct-14 05:32N 51°55' E 004°12'0 0.0
2014-Oct-14 04:32N 51°55' E 004°12'0 0.0
2014-Oct-14 03:32N 51°55' E 004°12'0 0.0
2014-Oct-14 02:32N 51°55' E 004°12'0 0.0
2014-Oct-14 01:32N 51°55' E 004°12'0 0.0
2014-Oct-14 00:32N 51°55' E 004°12'0 0.0
2014-Oct-13 23:32N 51°55' E 004°12'0 0.0
2014-Oct-13 22:32N 51°55' E 004°12'0 0.0
2014-Oct-13 21:32N 51°55' E 004°12'0 0.0
2014-Oct-13 20:32N 51°55' E 004°12'0 0.0
2014-Oct-13 19:32N 51°55' E 004°12'0 0.0
2014-Oct-13 18:32N 51°55' E 004°12'0 0.0
2014-Oct-13 17:32N 51°55' E 004°12'0 0.0
2014-Oct-13 16:32N 51°55' E 004°12'0 0.0
2014-Oct-13 15:32N 51°55' E 004°12'0 0.0
2014-Oct-13 14:32N 51°55' E 004°12'0 0.0
2014-Oct-13 13:32N 51°55' E 004°12'0 0.0
2014-Oct-13 12:32N 51°55' E 004°12'0 0.0
2014-Oct-13 11:32N 51°55' E 004°12'0 0.0
2014-Oct-13 10:32N 51°55' E 004°12'0 0.0
2014-Oct-13 09:32N 51°55' E 004°12'0 0.0
2014-Oct-13 08:32N 51°55' E 004°12'0 0.0
2014-Oct-13 07:32N 51°55' E 004°12'0 0.0
2014-Oct-13 06:32N 51°55' E 004°12'0 0.0
2014-Oct-13 05:32N 51°55' E 004°12'0 0.0
2014-Oct-13 04:32N 51°55' E 004°12'0 0.0
2014-Oct-13 03:32N 51°55' E 004°12'0 0.0
2014-Oct-13 02:32N 51°55' E 004°12'0 0.0
2014-Oct-13 01:32N 51°55' E 004°12'0 0.0
2014-Oct-13 00:34N 51°55' E 004°12'1 0.8
2014-Oct-12 23:34N 51°56' E 004°12'0 0.0
2014-Oct-12 22:32N 51°56' E 004°12'0 0.0
2014-Oct-12 21:32N 51°56' E 004°12'0 0.0
2014-Oct-12 20:32N 51°56' E 004°12'0 0.0
2014-Oct-12 19:32N 51°56' E 004°12'0 0.0
2014-Oct-12 18:32N 51°56' E 004°12'0 0.0
2014-Oct-12 17:32N 51°56' E 004°12'0 0.0
2014-Oct-12 16:32N 51°56' E 004°12'0 0.0
2014-Oct-12 15:32N 51°56' E 004°12'0 0.0
2014-Oct-12 14:32N 51°56' E 004°12'0 0.0
2014-Oct-12 13:32N 51°56' E 004°12'0 0.0
2014-Oct-12 12:32N 51°56' E 004°12'0 0.0
2014-Oct-12 11:32N 51°56' E 004°12'0 0.0
2014-Oct-12 10:32N 51°56' E 004°12'0 0.0
2014-Oct-12 09:32N 51°56' E 004°12'0 0.0
2014-Oct-12 08:32N 51°56' E 004°12'0 0.0
2014-Oct-12 07:32N 51°56' E 004°12'0 0.0
2014-Oct-12 06:32N 51°56' E 004°12'0 0.0
2014-Oct-12 05:32N 51°56' E 004°12'0 0.0
2014-Oct-12 04:32N 51°56' E 004°12'0 0.0
2014-Oct-12 03:32N 51°56' E 004°12'0 0.0
2014-Oct-12 02:32N 51°56' E 004°12'0 0.0
2014-Oct-12 01:32N 51°56' E 004°12'0 0.0
2014-Oct-12 00:32N 51°56' E 004°12'0 0.0
2014-Oct-11 23:32N 51°56' E 004°12'0 0.0
2014-Oct-11 22:32N 51°56' E 004°12'0 0.0
2014-Oct-11 21:32N 51°56' E 004°12'0 0.0
2014-Oct-11 20:32N 51°56' E 004°12'0 0.0
2014-Oct-11 19:32N 51°56' E 004°12'0 0.0
2014-Oct-11 18:32N 51°56' E 004°12'0 0.0
2014-Oct-11 17:32N 51°56' E 004°12'0 0.0
2014-Oct-11 16:32N 51°56' E 004°12'0 0.0
2014-Oct-11 15:32N 51°56' E 004°12'0 0.0
2014-Oct-11 14:32N 51°56' E 004°12'0 0.0
2014-Oct-11 13:32N 51°56' E 004°12'0 0.0
2014-Oct-11 12:32N 51°56' E 004°12'0 0.0
2014-Oct-11 11:32N 51°56' E 004°12'0 0.0
2014-Oct-11 10:32N 51°56' E 004°12'0 0.0
2014-Oct-11 09:32N 51°56' E 004°12'0 0.0
2014-Oct-11 08:32N 51°56' E 004°12'0 0.0
2014-Oct-11 07:32N 51°56' E 004°12'0 0.0
2014-Oct-11 06:32N 51°56' E 004°12'0 0.0
2014-Oct-11 05:32N 51°56' E 004°12'0 0.0
2014-Oct-11 04:32N 51°56' E 004°12'0 0.0
2014-Oct-11 03:32N 51°56' E 004°12'0 0.0
2014-Oct-11 02:32N 51°56' E 004°12'0 0.0
2014-Oct-11 01:33N 51°56' E 004°12'4 3.7
2014-Oct-11 00:33N 51°58' E 004°07'5 4.8
2014-Oct-10 23:33N 51°59' E 003°59'0 0.0
2014-Oct-10 22:33N 51°59' E 003°59'0 0.0
2014-Oct-10 21:33N 51°59' E 003°59'0 0.0
2014-Oct-10 20:33N 51°59' E 003°59'0 0.0
2014-Oct-10 19:33N 51°59' E 003°59'0 0.0
2014-Oct-10 18:33N 51°59' E 003°59'0 0.0
2014-Oct-10 17:33N 51°59' E 003°59'0 0.0
2014-Oct-10 16:33N 51°59' E 003°59'0 0.0
2014-Oct-10 15:33N 51°59' E 003°59'0 0.0
2014-Oct-10 14:33N 51°59' E 003°59'0 0.0
2014-Oct-10 13:33N 51°59' E 003°59'0 0.0
2014-Oct-10 12:33N 51°59' E 003°59'0 0.0
2014-Oct-10 11:33N 51°59' E 003°59'0 0.0
2014-Oct-10 10:24N 51°59' E 003°59'0 0.0
2014-Oct-10 09:24N 51°59' E 003°59'0 0.0
2014-Oct-10 08:33N 51°59' E 003°59'0 0.0
2014-Oct-10 07:33N 51°59' E 003°59'0 0.0
2014-Oct-10 06:33N 51°59' E 003°59'  

Dump ship's entire track history